CFG1608 EDDM-LGKO

Flight info

Callsign CFG1608
Flight time 2h 20m
Altitude 35000
Route VAVOR3E VAVOR M867 RADIZ DCT LUPIX DCT MEDUX UM867 KOGAT DCT ERANA UL737 TSL UN130 MES UN139 LURUS L995 KOPAR
Aircraft A320/M-SDE3FGHIJ1LORVWXYZ/S

Departure

Time 2026-05-08 12:24
Airport Munich Airport (EDDM)

Arrival

Time 2026-05-08 14:44
Airport Kos International Airport "Ippokratis" (LGKO)
Time Latitude Longitude Altitude Speed Heading
2026-05-08 11:48 48.35046 11.78357 1486 ft 0 kts 83°
2026-05-08 12:14 48.35044 11.78335 1473 ft 4 kts 83°
2026-05-08 12:14 48.35041 11.78294 1474 ft 4 kts 83°
2026-05-08 12:15 48.35039 11.78263 1475 ft 4 kts 95°
2026-05-08 12:15 48.35047 11.78227 1477 ft 4 kts 134°
2026-05-08 12:15 48.35067 11.78210 1475 ft 3 kts 173°
2026-05-08 12:15 48.35084 11.78207 1479 ft 0 kts 173°
2026-05-08 12:17 48.35040 11.78215 1475 ft 11 kts 173°
2026-05-08 12:18 48.34962 11.78229 1482 ft 10 kts 173°
2026-05-08 12:18 48.34898 11.78210 1476 ft 10 kts 223°
2026-05-08 12:18 48.34880 11.78102 1485 ft 10 kts 265°
2026-05-08 12:18 48.34836 11.78035 1481 ft 11 kts 175°
2026-05-08 12:19 48.34746 11.78052 1483 ft 15 kts 173°
2026-05-08 12:19 48.34669 11.77966 1483 ft 16 kts 262°
2026-05-08 12:19 48.34657 11.77815 1485 ft 14 kts 263°
2026-05-08 12:19 48.34644 11.77659 1485 ft 16 kts 265°
2026-05-08 12:20 48.34632 11.77478 1485 ft 19 kts 264°
2026-05-08 12:20 48.34616 11.77264 1485 ft 22 kts 263°
2026-05-08 12:20 48.34598 11.77026 1485 ft 25 kts 264°
2026-05-08 12:20 48.34579 11.76757 1479 ft 27 kts 264°
2026-05-08 12:21 48.34555 11.76462 1480 ft 30 kts 262°
2026-05-08 12:21 48.34530 11.76174 1485 ft 25 kts 263°
2026-05-08 12:21 48.34511 11.75905 1478 ft 26 kts 264°
2026-05-08 12:21 48.34489 11.75627 1485 ft 27 kts 263°
2026-05-08 12:22 48.34468 11.75353 1485 ft 22 kts 262°
2026-05-08 12:22 48.34417 11.75221 1482 ft 14 kts 187°
2026-05-08 12:22 48.34329 11.75230 1485 ft 12 kts 175°
2026-05-08 12:22 48.34253 11.75241 1473 ft 10 kts 174°
2026-05-08 12:23 48.34168 11.75254 1482 ft 15 kts 173°
2026-05-08 12:23 48.34088 11.75336 1476 ft 15 kts 98°
2026-05-08 12:23 48.34103 11.75555 1485 ft 42 kts 84°
2026-05-08 12:23 48.34163 11.76348 1476 ft 108 kts 83°
2026-05-08 12:24 48.34272 11.77754 1486 ft 160 kts 83°
2026-05-08 12:24 48.34414 11.79515 1950 ft 168 kts 83°
2026-05-08 12:24 48.34550 11.81241 2780 ft 165 kts 82°
2026-05-08 12:24 48.34684 11.83025 3193 ft 179 kts 82°
2026-05-08 12:25 48.34833 11.85001 3466 ft 200 kts 82°
2026-05-08 12:25 48.35003 11.87186 3741 ft 223 kts 83°
2026-05-08 12:25 48.35185 11.89616 4168 ft 241 kts 83°
2026-05-08 12:25 48.35370 11.92129 4963 ft 243 kts 83°
2026-05-08 12:26 48.35448 11.94678 5675 ft 250 kts 102°
2026-05-08 12:26 48.34631 11.96975 6328 ft 256 kts 139°
2026-05-08 12:26 48.33189 11.98556 7121 ft 257 kts 146°
2026-05-08 12:26 48.31733 12.00136 7896 ft 260 kts 145°
2026-05-08 12:27 48.30222 12.01636 8659 ft 261 kts 157°
2026-05-08 12:27 48.28522 12.02503 9344 ft 265 kts 172°
2026-05-08 12:27 48.26632 12.02642 9782 ft 278 kts 186°
2026-05-08 12:27 48.24684 12.02506 10449 ft 283 kts 185°
2026-05-08 12:28 48.22702 12.02380 11138 ft 287 kts 185°
2026-05-08 12:28 48.20684 12.02255 11832 ft 291 kts 185°
2026-05-08 12:28 48.18642 12.02133 12529 ft 296 kts 185°
2026-05-08 12:28 48.16574 12.02014 13203 ft 300 kts 184°
2026-05-08 12:29 48.14471 12.02253 13875 ft 307 kts 170°
2026-05-08 12:29 48.12423 12.03254 14480 ft 313 kts 159°
2026-05-08 12:29 48.10417 12.04565 15089 ft 316 kts 159°
2026-05-08 12:29 48.08383 12.05881 15694 ft 320 kts 159°
2026-05-08 12:30 48.06333 12.07197 16290 ft 323 kts 159°
2026-05-08 12:30 48.04255 12.08527 16898 ft 326 kts 159°
2026-05-08 12:30 48.02159 12.09865 17493 ft 329 kts 159°
2026-05-08 12:30 48.00042 12.11216 18080 ft 333 kts 159°
2026-05-08 12:31 47.97905 12.12577 18637 ft 336 kts 159°
2026-05-08 12:31 47.95746 12.13951 19171 ft 338 kts 160°
2026-05-08 12:31 47.93615 12.15474 19705 ft 343 kts 151°
2026-05-08 12:31 47.91654 12.17608 19941 ft 358 kts 142°
2026-05-08 12:32 47.89707 12.20055 20071 ft 374 kts 142°
2026-05-08 12:32 47.87683 12.22612 20198 ft 389 kts 142°
2026-05-08 12:32 47.85582 12.25269 20333 ft 403 kts 142°
2026-05-08 12:32 47.83421 12.27996 20663 ft 411 kts 142°
2026-05-08 12:33 47.81229 12.30758 21120 ft 414 kts 142°
2026-05-08 12:33 47.79015 12.33538 21606 ft 417 kts 142°
2026-05-08 12:33 47.76787 12.36324 22084 ft 420 kts 143°
2026-05-08 12:33 47.74549 12.39118 22589 ft 422 kts 143°
2026-05-08 12:34 47.72318 12.41895 23033 ft 425 kts 143°
2026-05-08 12:34 47.70048 12.44715 23458 ft 427 kts 143°
2026-05-08 12:34 47.67755 12.47550 23814 ft 430 kts 143°
2026-05-08 12:34 47.65451 12.50386 24196 ft 431 kts 144°
2026-05-08 12:35 47.63135 12.53238 24547 ft 434 kts 143°
2026-05-08 12:35 47.60913 12.56395 24884 ft 439 kts 139°
2026-05-08 12:35 47.58757 12.59607 25234 ft 441 kts 139°
2026-05-08 12:35 47.56589 12.62830 25562 ft 443 kts 139°
2026-05-08 12:36 47.54436 12.66026 25901 ft 445 kts 139°
2026-05-08 12:36 47.52239 12.69278 26183 ft 448 kts 139°
2026-05-08 12:36 47.50035 12.72531 26511 ft 449 kts 139°
2026-05-08 12:36 47.47814 12.75806 26821 ft 451 kts 140°
2026-05-08 12:37 47.45587 12.79084 27158 ft 452 kts 140°
2026-05-08 12:37 47.43355 12.82367 27489 ft 453 kts 140°
2026-05-08 12:37 47.41117 12.85665 27796 ft 455 kts 140°
2026-05-08 12:37 47.38874 12.88967 28076 ft 457 kts 140°
2026-05-08 12:38 47.36616 12.92279 28350 ft 459 kts 141°
2026-05-08 12:38 47.34347 12.95599 28623 ft 460 kts 141°
2026-05-08 12:38 47.32074 12.98926 28873 ft 462 kts 140°
2026-05-08 12:38 47.29793 13.02267 29100 ft 463 kts 141°
2026-05-08 12:39 47.27502 13.05621 29314 ft 465 kts 141°
2026-05-08 12:39 47.25204 13.08978 29520 ft 465 kts 140°
2026-05-08 12:39 47.22903 13.12334 29816 ft 465 kts 141°
2026-05-08 12:39 47.20605 13.15675 30166 ft 463 kts 141°
2026-05-08 12:40 47.18319 13.18996 30473 ft 462 kts 141°
2026-05-08 12:40 47.16039 13.22305 30762 ft 460 kts 141°
2026-05-08 12:40 47.13764 13.25602 31056 ft 459 kts 141°
2026-05-08 12:40 47.11494 13.28885 31330 ft 457 kts 141°
2026-05-08 12:41 47.09232 13.32155 31631 ft 456 kts 141°
2026-05-08 12:41 47.06976 13.35410 31922 ft 455 kts 141°
2026-05-08 12:41 47.04718 13.38661 32252 ft 454 kts 141°
2026-05-08 12:41 47.02465 13.41898 32565 ft 453 kts 141°
2026-05-08 12:42 47.00217 13.45130 32847 ft 453 kts 141°
2026-05-08 12:42 46.97967 13.48359 33171 ft 452 kts 142°
2026-05-08 12:42 46.95723 13.51572 33476 ft 451 kts 142°
2026-05-08 12:42 46.93479 13.54781 33781 ft 450 kts 142°
2026-05-08 12:43 46.91244 13.57977 34056 ft 449 kts 142°
2026-05-08 12:43 46.89012 13.61171 34268 ft 449 kts 141°
2026-05-08 12:43 46.86782 13.64359 34541 ft 448 kts 142°
2026-05-08 12:43 46.84576 13.67501 34727 ft 448 kts 141°
2026-05-08 12:44 46.82343 13.70679 34889 ft 448 kts 141°
2026-05-08 12:44 46.80102 13.73862 35022 ft 449 kts 141°
2026-05-08 12:44 46.75615 13.80227 35035 ft 450 kts 141°
2026-05-08 12:45 46.71126 13.86598 35059 ft 451 kts 141°
2026-05-08 12:45 46.66624 13.92971 35054 ft 451 kts 141°
2026-05-08 12:46 46.62110 13.99326 35059 ft 451 kts 141°
2026-05-08 12:46 46.57600 14.05655 35062 ft 451 kts 141°
2026-05-08 12:47 46.53082 14.11991 35076 ft 451 kts 141°
2026-05-08 12:47 46.48565 14.18308 35068 ft 451 kts 142°
2026-05-08 12:48 46.44046 14.24614 35053 ft 450 kts 141°
2026-05-08 12:48 46.39533 14.30911 35061 ft 450 kts 142°
2026-05-08 12:49 46.35009 14.37199 35069 ft 450 kts 142°
2026-05-08 12:49 46.30501 14.43435 35078 ft 451 kts 142°
2026-05-08 12:50 46.25964 14.49699 35079 ft 451 kts 142°
2026-05-08 12:50 46.21430 14.55945 35061 ft 450 kts 142°
2026-05-08 12:51 46.14615 14.65313 35069 ft 450 kts 142°
2026-05-08 12:52 46.10839 14.70488 35068 ft 450 kts 142°
2026-05-08 12:52 46.03672 14.81460 35059 ft 455 kts 135°
2026-05-08 12:53 46.00287 14.87349 35042 ft 456 kts 135°
2026-05-08 12:53 45.96242 14.94369 35043 ft 456 kts 134°
2026-05-08 12:54 45.92183 15.01385 35051 ft 456 kts 135°
2026-05-08 12:54 45.88153 15.08332 35058 ft 456 kts 135°
2026-05-08 12:55 45.84071 15.15367 35048 ft 456 kts 135°
2026-05-08 12:55 45.80029 15.22300 35060 ft 456 kts 135°
2026-05-08 12:56 45.75963 15.29261 35066 ft 455 kts 135°
2026-05-08 12:56 45.71894 15.36215 35071 ft 455 kts 135°
2026-05-08 12:57 45.67822 15.43150 35057 ft 455 kts 135°
2026-05-08 12:57 45.63737 15.50075 35051 ft 454 kts 135°
2026-05-08 12:58 45.59667 15.56983 35047 ft 454 kts 135°
2026-05-08 12:58 45.55692 15.63709 35048 ft 454 kts 135°
2026-05-08 12:59 45.51655 15.70513 35048 ft 454 kts 135°
2026-05-08 12:59 45.47569 15.77384 35038 ft 455 kts 135°
2026-05-08 13:00 45.43480 15.84245 35040 ft 454 kts 135°
2026-05-08 13:00 45.39382 15.91106 35055 ft 454 kts 135°
2026-05-08 13:01 45.35283 15.97944 35064 ft 454 kts 135°
2026-05-08 13:01 45.31188 16.04773 35048 ft 454 kts 135°
2026-05-08 13:02 45.27099 16.11596 35057 ft 453 kts 135°
2026-05-08 13:02 45.23001 16.18390 35052 ft 453 kts 135°
2026-05-08 13:03 45.18890 16.25168 35061 ft 453 kts 135°
2026-05-08 13:03 45.14784 16.31937 35060 ft 452 kts 135°
2026-05-08 13:04 45.10689 16.38689 35044 ft 452 kts 135°
2026-05-08 13:04 45.06578 16.45441 35051 ft 452 kts 135°
2026-05-08 13:05 45.02467 16.52175 35054 ft 453 kts 135°
2026-05-08 13:05 44.98346 16.58908 35052 ft 452 kts 135°
2026-05-08 13:06 44.94220 16.65625 35038 ft 453 kts 135°
2026-05-08 13:06 44.90122 16.72308 35033 ft 453 kts 135°
2026-05-08 13:07 44.85983 16.79034 35037 ft 454 kts 135°
2026-05-08 13:07 44.81837 16.85737 35037 ft 454 kts 135°
2026-05-08 13:08 44.77685 16.92433 35028 ft 454 kts 135°
2026-05-08 13:08 44.73534 16.99118 35054 ft 453 kts 135°
2026-05-08 13:09 44.69394 17.05776 35058 ft 452 kts 135°
2026-05-08 13:09 44.65250 17.12412 35060 ft 451 kts 135°
2026-05-08 13:10 44.61105 17.19042 35064 ft 451 kts 135°
2026-05-08 13:10 44.56963 17.25655 35052 ft 451 kts 135°
2026-05-08 13:11 44.52826 17.32251 35066 ft 450 kts 135°
2026-05-08 13:11 44.48679 17.38838 35055 ft 450 kts 135°
2026-05-08 13:12 44.44538 17.45402 35062 ft 450 kts 135°
2026-05-08 13:12 44.40388 17.51968 35032 ft 450 kts 135°
2026-05-08 13:13 44.36242 17.58519 35058 ft 450 kts 135°
2026-05-08 13:13 44.32090 17.65051 35062 ft 449 kts 135°
2026-05-08 13:14 44.27958 17.71529 35058 ft 449 kts 135°
2026-05-08 13:14 44.23772 17.78079 35049 ft 449 kts 135°
2026-05-08 13:15 44.19650 17.84525 35056 ft 448 kts 135°
2026-05-08 13:15 44.15473 17.91038 35057 ft 448 kts 135°
2026-05-08 13:16 44.11328 17.97496 35054 ft 447 kts 135°
2026-05-08 13:16 44.07204 18.03903 35055 ft 447 kts 135°
2026-05-08 13:17 44.03053 18.10330 35046 ft 447 kts 135°
2026-05-08 13:17 43.98893 18.16762 35048 ft 447 kts 135°
2026-05-08 13:18 43.94732 18.23177 35055 ft 447 kts 135°
2026-05-08 13:18 43.90567 18.29582 35059 ft 447 kts 135°
2026-05-08 13:19 43.86392 18.35984 35052 ft 447 kts 135°
2026-05-08 13:19 43.82215 18.42377 35053 ft 448 kts 135°
2026-05-08 13:20 43.78030 18.48768 35050 ft 448 kts 135°
2026-05-08 13:20 43.73851 18.55145 35045 ft 448 kts 135°
2026-05-08 13:21 43.69669 18.61518 35024 ft 447 kts 135°
2026-05-08 13:21 43.65482 18.67874 35017 ft 447 kts 135°
2026-05-08 13:22 43.61290 18.74214 35011 ft 447 kts 135°
2026-05-08 13:22 43.57098 18.80539 35007 ft 447 kts 135°
2026-05-08 13:23 43.52907 18.86861 34996 ft 446 kts 135°
2026-05-08 13:23 43.48711 18.93189 34991 ft 447 kts 135°
2026-05-08 13:24 43.44533 18.99465 34990 ft 448 kts 135°
2026-05-08 13:24 43.40287 19.05815 34994 ft 448 kts 135°
2026-05-08 13:25 43.36087 19.12075 34975 ft 449 kts 135°
2026-05-08 13:25 43.31850 19.18385 34979 ft 449 kts 135°
2026-05-08 13:26 43.27613 19.24693 34983 ft 450 kts 135°
2026-05-08 13:26 43.23361 19.31009 34981 ft 450 kts 135°
2026-05-08 13:27 43.19103 19.37313 34986 ft 450 kts 135°
2026-05-08 13:27 43.14842 19.43608 34990 ft 451 kts 135°
2026-05-08 13:28 43.10571 19.49903 34987 ft 451 kts 135°
2026-05-08 13:28 43.06298 19.56199 34992 ft 451 kts 135°
2026-05-08 13:29 43.02020 19.62485 34994 ft 451 kts 135°
2026-05-08 13:29 42.97736 19.68755 34996 ft 451 kts 136°
2026-05-08 13:30 42.93450 19.75010 35000 ft 451 kts 136°
2026-05-08 13:30 42.89163 19.81267 34999 ft 451 kts 135°
2026-05-08 13:31 42.84878 19.87509 35000 ft 451 kts 136°
2026-05-08 13:31 42.80594 19.93744 35013 ft 451 kts 136°
2026-05-08 13:32 42.76297 19.99961 35015 ft 451 kts 136°
2026-05-08 13:32 42.72086 20.06290 35015 ft 452 kts 133°
2026-05-08 13:33 42.68119 20.12924 35025 ft 452 kts 131°
2026-05-08 13:33 42.64224 20.19568 35023 ft 452 kts 131°
2026-05-08 13:34 42.60247 20.26172 35029 ft 451 kts 132°
2026-05-08 13:34 42.56236 20.32723 35022 ft 451 kts 132°
2026-05-08 13:35 42.52901 20.38170 35023 ft 451 kts 132°
2026-05-08 13:35 42.48891 20.44722 35021 ft 451 kts 132°
2026-05-08 13:36 42.44881 20.51268 35019 ft 451 kts 132°
2026-05-08 13:36 42.40863 20.57805 35021 ft 452 kts 132°
2026-05-08 13:37 42.36835 20.64341 35032 ft 452 kts 132°
2026-05-08 13:37 42.32809 20.70868 35033 ft 452 kts 132°
2026-05-08 13:38 42.28770 20.77392 35028 ft 452 kts 132°
2026-05-08 13:38 42.24729 20.83901 35025 ft 452 kts 132°
2026-05-08 13:39 42.20688 20.90410 35036 ft 452 kts 132°
2026-05-08 13:39 42.16637 20.96912 35034 ft 452 kts 133°
2026-05-08 13:40 42.12588 21.03399 35035 ft 452 kts 133°
2026-05-08 13:40 42.08205 21.09416 35031 ft 450 kts 139°
2026-05-08 13:41 42.03651 21.15203 35016 ft 450 kts 138°
2026-05-08 13:41 41.99097 21.21000 35019 ft 450 kts 138°
2026-05-08 13:42 41.94537 21.26780 35014 ft 451 kts 138°
2026-05-08 13:42 41.90001 21.32515 35009 ft 451 kts 138°
2026-05-08 13:43 41.85432 21.38282 35015 ft 451 kts 138°
2026-05-08 13:43 41.80855 21.44027 35018 ft 451 kts 138°
2026-05-08 13:44 41.76274 21.49772 35016 ft 451 kts 139°
2026-05-08 13:44 41.71687 21.55525 35013 ft 452 kts 139°
2026-05-08 13:45 41.67091 21.61268 35018 ft 452 kts 139°
2026-05-08 13:45 41.62492 21.67005 35021 ft 453 kts 139°
2026-05-08 13:46 41.57878 21.72743 35026 ft 453 kts 139°
2026-05-08 13:46 41.53261 21.78470 35037 ft 453 kts 139°
2026-05-08 13:47 41.48645 21.84184 35006 ft 452 kts 139°
2026-05-08 13:47 41.44028 21.89903 35003 ft 454 kts 139°
2026-05-08 13:48 41.39394 21.95634 35002 ft 455 kts 139°
2026-05-08 13:48 41.34752 22.01364 35013 ft 455 kts 139°
2026-05-08 13:49 41.30094 22.07087 35018 ft 456 kts 139°
2026-05-08 13:49 41.25433 22.12803 35025 ft 456 kts 139°
2026-05-08 13:50 41.20766 22.18525 35008 ft 457 kts 139°
2026-05-08 13:50 41.16106 22.24206 35017 ft 458 kts 140°
2026-05-08 13:51 41.11241 22.29673 35026 ft 458 kts 143°
2026-05-08 13:51 41.06238 22.34910 35032 ft 458 kts 144°
2026-05-08 13:52 41.01237 22.40154 35031 ft 459 kts 143°
2026-05-08 13:52 40.96275 22.45461 35029 ft 459 kts 143°
2026-05-08 13:53 40.91315 22.50791 35020 ft 460 kts 144°
2026-05-08 13:53 40.86334 22.56123 35025 ft 460 kts 144°
2026-05-08 13:54 40.81349 22.61426 35029 ft 461 kts 144°
2026-05-08 13:54 40.76355 22.66734 35037 ft 461 kts 144°
2026-05-08 13:55 40.71355 22.72035 35042 ft 461 kts 145°
2026-05-08 13:56 40.63840 22.79984 35035 ft 462 kts 146°
2026-05-08 13:56 40.58846 22.85261 35048 ft 464 kts 146°
2026-05-08 13:57 40.53812 22.90569 35060 ft 464 kts 146°
2026-05-08 13:57 40.48764 22.95876 35061 ft 465 kts 146°
2026-05-08 13:58 40.43917 23.01534 35067 ft 470 kts 137°
2026-05-08 13:58 40.39431 23.07762 35058 ft 470 kts 137°
2026-05-08 13:59 40.34926 23.13993 35040 ft 470 kts 138°
2026-05-08 13:59 40.30422 23.20203 35038 ft 470 kts 138°
2026-05-08 14:00 40.25916 23.26412 35036 ft 470 kts 138°
2026-05-08 14:00 40.21392 23.32620 35039 ft 471 kts 138°
2026-05-08 14:01 40.16871 23.38809 35021 ft 471 kts 139°
2026-05-08 14:01 40.12331 23.45019 35010 ft 473 kts 139°
2026-05-08 14:02 40.07775 23.51237 35026 ft 474 kts 139°
2026-05-08 14:02 40.03230 23.57412 35032 ft 475 kts 140°
2026-05-08 14:03 39.98642 23.63642 35041 ft 476 kts 139°
2026-05-08 14:03 39.94057 23.69876 35035 ft 476 kts 139°
2026-05-08 14:04 39.89455 23.76107 35023 ft 477 kts 140°
2026-05-08 14:04 39.84835 23.82339 35034 ft 479 kts 140°
2026-05-08 14:05 39.80196 23.88588 35040 ft 480 kts 140°
2026-05-08 14:05 39.75549 23.94839 35041 ft 481 kts 140°
2026-05-08 14:06 39.70903 24.01087 35053 ft 481 kts 140°
2026-05-08 14:06 39.66242 24.07328 35033 ft 481 kts 140°
2026-05-08 14:07 39.61596 24.13526 35040 ft 482 kts 140°
2026-05-08 14:07 39.56921 24.19766 35032 ft 483 kts 141°
2026-05-08 14:08 39.52204 24.26045 35041 ft 484 kts 141°
2026-05-08 14:08 39.47499 24.32294 35048 ft 484 kts 141°
2026-05-08 14:09 39.42823 24.38492 35049 ft 485 kts 141°
2026-05-08 14:09 39.38112 24.44735 35033 ft 486 kts 141°
2026-05-08 14:10 39.33372 24.50981 35042 ft 487 kts 141°
2026-05-08 14:10 39.28652 24.57258 35029 ft 488 kts 140°
2026-05-08 14:11 39.23946 24.63575 35043 ft 488 kts 140°
2026-05-08 14:11 39.19233 24.69893 35055 ft 488 kts 140°
2026-05-08 14:12 39.14498 24.76185 35059 ft 488 kts 141°
2026-05-08 14:12 39.09752 24.82466 35069 ft 488 kts 141°
2026-05-08 14:13 39.04990 24.88691 35068 ft 488 kts 141°
2026-05-08 14:13 39.00189 24.94871 35038 ft 488 kts 142°
2026-05-08 14:14 38.95417 25.01011 35044 ft 488 kts 141°
2026-05-08 14:14 38.90596 25.07246 35047 ft 489 kts 141°
2026-05-08 14:15 38.85824 25.13408 35057 ft 490 kts 141°
2026-05-08 14:15 38.81011 25.19593 35064 ft 490 kts 141°
2026-05-08 14:16 38.76188 25.25776 35072 ft 490 kts 141°
2026-05-08 14:16 38.71363 25.31965 35083 ft 491 kts 141°
2026-05-08 14:17 38.66536 25.38148 35052 ft 491 kts 141°
2026-05-08 14:17 38.61698 25.44317 35069 ft 491 kts 141°
2026-05-08 14:18 38.56851 25.50491 35072 ft 492 kts 141°
2026-05-08 14:18 38.52001 25.56656 35086 ft 492 kts 141°
2026-05-08 14:19 38.47967 25.61764 35092 ft 492 kts 141°
2026-05-08 14:19 38.43114 25.67919 35086 ft 492 kts 141°
2026-05-08 14:20 38.38257 25.74045 35077 ft 491 kts 141°
2026-05-08 14:20 38.33394 25.80167 35097 ft 491 kts 141°
2026-05-08 14:21 38.28539 25.86291 35103 ft 490 kts 142°
2026-05-08 14:21 38.23112 25.91246 35106 ft 473 kts 160°
2026-05-08 14:22 38.17070 25.94277 35106 ft 465 kts 168°
2026-05-08 14:22 38.10972 25.97059 35076 ft 465 kts 167°
2026-05-08 14:23 38.04879 25.99833 35087 ft 465 kts 167°
2026-05-08 14:23 37.98774 26.02604 35110 ft 466 kts 167°
2026-05-08 14:24 37.92707 26.05354 35119 ft 466 kts 167°
2026-05-08 14:24 37.86603 26.08119 35024 ft 466 kts 167°
2026-05-08 14:24 37.83552 26.09502 34778 ft 465 kts 167°
2026-05-08 14:25 37.80509 26.10880 34544 ft 464 kts 167°
2026-05-08 14:25 37.77468 26.12253 34310 ft 464 kts 168°
2026-05-08 14:25 37.74425 26.13621 34071 ft 464 kts 168°
2026-05-08 14:25 37.71379 26.14988 33798 ft 465 kts 168°
2026-05-08 14:26 37.68327 26.16356 33532 ft 465 kts 168°
2026-05-08 14:26 37.65270 26.17726 33269 ft 466 kts 168°
2026-05-08 14:26 37.62212 26.19099 32763 ft 467 kts 168°
2026-05-08 14:26 37.59115 26.20483 31550 ft 476 kts 168°
2026-05-08 14:27 37.55975 26.21883 30568 ft 479 kts 168°
2026-05-08 14:27 37.52851 26.23283 29875 ft 474 kts 167°
2026-05-08 14:27 37.49758 26.24674 29152 ft 470 kts 167°
2026-05-08 14:27 37.46695 26.26054 28447 ft 465 kts 167°
2026-05-08 14:28 37.43660 26.27419 27763 ft 462 kts 167°
2026-05-08 14:28 37.40643 26.28772 27068 ft 459 kts 167°
2026-05-08 14:28 37.37645 26.30108 26397 ft 456 kts 167°
2026-05-08 14:28 37.34658 26.31433 25720 ft 454 kts 166°
2026-05-08 14:29 37.31680 26.32753 25042 ft 453 kts 166°
2026-05-08 14:29 37.28707 26.34070 24369 ft 452 kts 166°
2026-05-08 14:29 37.25744 26.35382 23708 ft 452 kts 165°
2026-05-08 14:29 37.22776 26.36702 23006 ft 450 kts 165°
2026-05-08 14:30 37.19833 26.38012 22404 ft 446 kts 165°
2026-05-08 14:30 37.16925 26.39306 21817 ft 442 kts 165°
2026-05-08 14:30 37.14040 26.40585 21272 ft 438 kts 165°
2026-05-08 14:30 37.11181 26.41855 20711 ft 435 kts 165°
2026-05-08 14:31 37.08372 26.43104 20151 ft 432 kts 165°
2026-05-08 14:31 37.05508 26.44376 19574 ft 430 kts 165°
2026-05-08 14:31 37.02721 26.45607 18998 ft 429 kts 165°
2026-05-08 14:32 36.97099 26.48080 17766 ft 427 kts 165°
2026-05-08 14:32 36.94323 26.49304 17140 ft 420 kts 165°
2026-05-08 14:32 36.91675 26.50746 16525 ft 413 kts 153°
2026-05-08 14:32 36.89413 26.52904 15936 ft 407 kts 137°
2026-05-08 14:33 36.87677 26.55652 15344 ft 401 kts 122°
2026-05-08 14:33 36.86492 26.58762 14756 ft 393 kts 113°
2026-05-08 14:33 36.85434 26.61865 14176 ft 385 kts 114°
2026-05-08 14:33 36.84394 26.64906 13564 ft 377 kts 114°
2026-05-08 14:34 36.83306 26.67837 13026 ft 367 kts 121°
2026-05-08 14:34 36.81892 26.70424 12493 ft 356 kts 132°
2026-05-08 14:34 36.80254 26.72699 11978 ft 351 kts 135°
2026-05-08 14:34 36.78605 26.74962 11452 ft 353 kts 135°
2026-05-08 14:35 36.76951 26.77234 10914 ft 354 kts 135°
2026-05-08 14:35 36.75306 26.79498 10624 ft 347 kts 135°
2026-05-08 14:35 36.74278 26.80917 10544 ft 339 kts 135°
2026-05-08 14:35 36.72725 26.83059 10429 ft 327 kts 135°
2026-05-08 14:36 36.71221 26.85132 10213 ft 320 kts 135°
2026-05-08 14:36 36.69770 26.87199 10093 ft 316 kts 129°
2026-05-08 14:36 36.68640 26.89547 9810 ft 319 kts 119°
2026-05-08 14:36 36.67641 26.92022 9360 ft 315 kts 118°
2026-05-08 14:37 36.66680 26.94442 8737 ft 309 kts 118°
2026-05-08 14:37 36.65737 26.96832 8104 ft 304 kts 118°
2026-05-08 14:37 36.64818 26.99160 7708 ft 291 kts 118°
2026-05-08 14:37 36.63954 27.01341 7400 ft 276 kts 118°
2026-05-08 14:38 36.63080 27.03518 6587 ft 282 kts 119°
2026-05-08 14:38 36.62221 27.05644 6288 ft 266 kts 119°
2026-05-08 14:38 36.61424 27.07618 6150 ft 245 kts 119°
2026-05-08 14:38 36.60686 27.09449 5983 ft 229 kts 119°
2026-05-08 14:39 36.60003 27.11174 5875 ft 216 kts 115°
2026-05-08 14:39 36.59659 27.12914 5766 ft 206 kts 95°
2026-05-08 14:39 36.59788 27.14674 5477 ft 206 kts 76°
2026-05-08 14:39 36.60286 27.16337 5141 ft 204 kts 70°
2026-05-08 14:40 36.60795 27.17960 4832 ft 198 kts 69°
2026-05-08 14:40 36.61346 27.19502 4497 ft 193 kts 56°
2026-05-08 14:40 36.62323 27.20579 4217 ft 187 kts 26°
2026-05-08 14:40 36.63574 27.20940 3941 ft 185 kts 357°
2026-05-08 14:41 36.64801 27.20531 3680 ft 187 kts 329°
2026-05-08 14:41 36.65924 27.19660 3391 ft 192 kts 326°
2026-05-08 14:41 36.67055 27.18770 3099 ft 192 kts 326°
2026-05-08 14:41 36.68184 27.17884 2851 ft 191 kts 327°
2026-05-08 14:42 36.69311 27.16999 2558 ft 192 kts 327°
2026-05-08 14:42 36.70435 27.16122 2309 ft 190 kts 327°
2026-05-08 14:42 36.71559 27.15250 2062 ft 190 kts 327°
2026-05-08 14:42 36.72679 27.14379 1809 ft 189 kts 327°
2026-05-08 14:43 36.73767 27.13533 1549 ft 177 kts 327°
2026-05-08 14:43 36.74771 27.12753 1319 ft 163 kts 327°
2026-05-08 14:43 36.75708 27.12027 1077 ft 155 kts 327°
2026-05-08 14:43 36.76619 27.11331 851 ft 152 kts 327°
2026-05-08 14:44 36.77506 27.10639 633 ft 149 kts 327°
2026-05-08 14:44 36.78381 27.09955 460 ft 148 kts 327°
2026-05-08 14:44 36.79186 27.09329 405 ft 114 kts 329°
2026-05-08 14:44 36.79608 27.09009 416 ft 29 kts 339°
2026-05-08 14:45 36.79777 27.08989 416 ft 16 kts
2026-05-08 14:45 36.79813 27.08988 411 ft 1 kts 358°
2026-05-08 14:45 36.79819 27.08988 414 ft 1 kts 358°
2026-05-08 14:45 36.79857 27.08983 415 ft 7 kts 357°
2026-05-08 14:46 36.79892 27.09007 408 ft 5 kts 51°
2026-05-08 14:46 36.79909 27.09040 416 ft 4 kts 58°
2026-05-08 14:46 36.79923 27.09068 417 ft 3 kts 57°
2026-05-08 14:46 36.79933 27.09087 414 ft 1 kts 58°
2026-05-08 14:47 36.79934 27.09089 414 ft 0 kts 58°